Kremmling, CO

11:11 PM MDT on September 18, 2019 (GMT -0600)
Kremmling

Weather History for K20V - August, 2019

Change the Weather History Date:

Sunday, August 25, 2019

  Actual Average Record
Temperature  
Mean Temperature 62 °F -  
Max Temperature 88 °F - 91 °F (2007)
Min Temperature 35 °F - 33 °F (2010)
Degree Days  
Heating Degree Days 4    
Month to date heating degree days 57  
Cooling Degree Days 0    
Month to date cooling degree days 20  
Growing Degree Days 12 (Base 50)    
Moisture  
Dew Point 33 °F    
Average Humidity 42    
Maximum Humidity 89    
Minimum Humidity 14    
Precipitation  
Precipitation 0.00 in - 0.08 in (2014)
Snow  
Snow 0.00 in - - ()
Snow Depth 0.00 in    
Sea Level Pressure  
Sea Level Pressure 30.21 in    
Wind  
Wind Speed 4 mph ()    
Max Wind Speed 18 mph    
Max Gust Speed 32 mph    
Visibility 10.0 miles    
Events      
T = Trace of Precipitation, MM = Missing Value Source: Averaged Metar Reports

Daily Weather History Graph

Daily Weather History Graph

Search for Another Location

Airport or City:

Astronomy

Aug. 25, 2019 Rise Set
Actual Time 6:26 AM MDT 7:48 PM MDT
Civil Twilight 5:58 AM MDT 8:16 PM MDT
Nautical Twilight 5:24 AM MDT 8:50 PM MDT
Astronomical Twilight 4:48 AM MDT 9:25 PM MDT
Moon 1:03 AM MDT (8/25) 4:11 PM MDT (8/25)
Length of Visible Light 14h 18m
Length of Day
13h 21m
Waning Crescent, 28% of the Moon is Illuminated
Aug 25
Waning Crescent
Aug 30
New
Sep 5
First Quarter
Sep 13
Full
Sep 21
Last Quarter

Hourly Weather History & Observations

Time (MDT) Temp. Windchill Dew Point Humidity Pressure Visibility Wind Dir Wind Speed Gust Speed Precip Events Conditions
12:06 AM 46.4 °F - 33.8 °F 62% 30.25 in 10.0 mi Calm Calm - N/A   Clear
12:30 AM 44.6 °F - 35.6 °F 71% 30.24 in 10.0 mi Calm Calm - N/A   Clear
12:47 AM 44.6 °F - 32.0 °F 61% 30.24 in 10.0 mi Calm Calm - N/A   Clear
1:06 AM 44.6 °F - 32.0 °F 61% 30.25 in 10.0 mi Calm Calm - N/A   Clear
1:30 AM 41.0 °F - 33.8 °F 76% 30.24 in 10.0 mi Calm Calm - N/A   Clear
1:48 AM 41.0 °F - 33.8 °F 76% 30.24 in 10.0 mi Calm Calm - N/A   Clear
2:06 AM 41.0 °F - 32.0 °F 70% 30.24 in 10.0 mi Calm Calm - N/A   Clear
2:30 AM 41.0 °F 39.0 °F 32.0 °F 70% 30.24 in 10.0 mi East 3.5 mph - N/A   Clear
2:48 AM 41.0 °F 39.0 °F 32.0 °F 70% 30.25 in 10.0 mi ESE 3.5 mph - N/A   Clear
3:06 AM 41.0 °F - 32.0 °F 70% 30.25 in 10.0 mi Calm Calm - N/A   Clear
3:30 AM 41.0 °F - 32.0 °F 70% 30.26 in 10.0 mi Calm Calm - N/A   Clear
3:48 AM 37.4 °F - 32.0 °F 81% 30.25 in 10.0 mi Calm Calm - N/A   Clear
4:06 AM 39.2 °F - 32.0 °F 75% 30.26 in 10.0 mi Calm Calm - N/A   Clear
4:30 AM 37.4 °F - 32.0 °F 81% 30.26 in 10.0 mi Calm Calm - N/A   Clear
4:48 AM 39.2 °F - 32.0 °F 75% 30.26 in 10.0 mi Calm Calm - N/A   Clear
5:06 AM 37.4 °F - 32.0 °F 81% 30.26 in 10.0 mi Calm Calm - N/A   Clear
5:30 AM 37.4 °F - 32.0 °F 81% 30.26 in 10.0 mi Calm Calm - N/A   Clear
5:48 AM 35.6 °F - 30.2 °F 81% 30.26 in 10.0 mi Calm Calm - N/A   Clear
6:06 AM 37.4 °F - 32.0 °F 81% 30.26 in 10.0 mi Calm Calm - N/A   Clear
6:30 AM 35.6 °F - 32.0 °F 87% 30.27 in 10.0 mi Calm Calm - N/A   Clear
6:48 AM 35.6 °F - 32.0 °F 87% 30.27 in 10.0 mi Calm Calm - N/A   Clear
7:06 AM 35.6 °F - 32.0 °F 87% 30.27 in 10.0 mi Calm Calm - N/A   Clear
7:30 AM 37.4 °F - 32.0 °F 81% 30.28 in 10.0 mi Calm Calm - N/A   Clear
7:48 AM 41.0 °F - 32.0 °F 70% 30.29 in 10.0 mi Calm Calm - N/A   Clear
8:06 AM 42.8 °F - 32.0 °F 66% 30.29 in 10.0 mi Calm Calm - N/A   Clear
8:30 AM 48.2 °F - 33.8 °F 58% 30.29 in 10.0 mi Calm Calm - N/A   Clear
8:48 AM 50.0 °F - 33.8 °F 54% 30.28 in 10.0 mi Calm Calm - N/A   Clear
9:06 AM 53.6 °F - 33.8 °F 47% 30.28 in 10.0 mi Calm Calm - N/A   Clear
9:30 AM 55.4 °F - 33.8 °F 44% 30.27 in 10.0 mi Calm Calm - N/A   Clear
9:48 AM 59.0 °F - 33.8 °F 39% 30.26 in 10.0 mi Calm Calm - N/A   Clear
10:06 AM 60.8 °F - 33.8 °F 36% 30.26 in 10.0 mi Calm Calm - N/A   Clear
10:29 AM 66.2 °F - 35.6 °F 32% 30.25 in 10.0 mi NNE 3.5 mph - N/A   Clear
10:47 AM 68.0 °F - 35.6 °F 30% 30.24 in 10.0 mi Calm Calm - N/A   Scattered Clouds
11:06 AM 71.6 °F - 35.6 °F 27% 30.23 in 10.0 mi SW 3.5 mph - N/A   Scattered Clouds
11:48 AM 75.2 °F - 35.6 °F 24% 30.22 in 10.0 mi NW 10.4 mph 21.9 mph N/A   Scattered Clouds
12:06 PM 77.0 °F - 37.4 °F 24% 30.21 in 10.0 mi NW 11.5 mph 18.4 mph N/A   Mostly Cloudy
12:30 PM 78.8 °F - 37.4 °F 23% 30.21 in 10.0 mi NW 11.5 mph 23.0 mph N/A   Scattered Clouds
12:48 PM 78.8 °F - 37.4 °F 23% 30.20 in 10.0 mi WNW 13.8 mph 21.9 mph N/A   Scattered Clouds
1:06 PM 78.8 °F - 37.4 °F 23% 30.19 in 10.0 mi NW 11.5 mph 19.6 mph N/A   Mostly Cloudy
1:30 PM 80.6 °F - 37.4 °F 21% 30.19 in 10.0 mi WNW 15.0 mph 21.9 mph N/A   Scattered Clouds
1:48 PM 80.6 °F - 35.6 °F 20% 30.18 in 10.0 mi West 15.0 mph 27.6 mph N/A   Clear
2:06 PM 84.2 °F - 35.6 °F 18% 30.17 in 10.0 mi West 10.4 mph 20.7 mph N/A   Clear
2:30 PM 86.0 °F - 37.4 °F 18% 30.16 in 10.0 mi WNW 11.5 mph 19.6 mph N/A   Scattered Clouds
2:48 PM 87.8 °F - 37.4 °F 17% 30.16 in 10.0 mi WNW 12.7 mph 21.9 mph N/A   Scattered Clouds
3:06 PM 86.0 °F - 35.6 °F 17% 30.15 in 10.0 mi NW 11.5 mph 26.5 mph N/A   Scattered Clouds
3:30 PM 86.0 °F - 33.8 °F 15% 30.14 in 10.0 mi WNW 11.5 mph 27.6 mph N/A   Scattered Clouds
3:48 PM 86.0 °F - 32.0 °F 14% 30.14 in 10.0 mi WNW 15.0 mph 32.2 mph N/A   Clear
4:06 PM 86.0 °F - 32.0 °F 14% 30.13 in 10.0 mi WNW 13.8 mph 24.2 mph N/A   Clear
4:30 PM 86.0 °F - 32.0 °F 14% 30.12 in 10.0 mi West 18.4 mph 32.2 mph N/A   Clear
4:48 PM 86.0 °F - 32.0 °F 14% 30.12 in 10.0 mi WNW 11.5 mph 25.3 mph N/A   Clear
5:06 PM 84.2 °F - 32.0 °F 15% 30.12 in 10.0 mi NW 16.1 mph 28.8 mph N/A   Clear
5:30 PM 82.4 °F - 32.0 °F 16% 30.13 in 10.0 mi West 18.4 mph 29.9 mph N/A   Clear
5:48 PM 82.4 °F - 32.0 °F 16% 30.13 in 10.0 mi WNW 17.3 mph 31.1 mph N/A   Clear
6:06 PM 82.4 °F - 32.0 °F 16% 30.13 in 10.0 mi WNW 9.2 mph 20.7 mph N/A   Clear
6:30 PM 80.6 °F - 32.0 °F 17% 30.12 in 10.0 mi WNW 11.5 mph 20.7 mph N/A   Clear
6:48 PM 78.8 °F - 32.0 °F 18% 30.12 in 10.0 mi WNW 9.2 mph 17.3 mph N/A   Clear
7:06 PM 78.8 °F - 32.0 °F 18% 30.12 in 10.0 mi WNW 9.2 mph 16.1 mph N/A   Clear
7:30 PM 75.2 °F - 32.0 °F 21% 30.12 in 10.0 mi WNW 4.6 mph - N/A   Clear
7:48 PM 75.2 °F - 32.0 °F 21% 30.12 in 10.0 mi WNW 4.6 mph - N/A   Clear
8:06 PM 73.4 °F - 32.0 °F 22% 30.14 in 10.0 mi WNW 5.8 mph - N/A   Clear
8:30 PM 71.6 °F - 32.0 °F 23% 30.14 in 10.0 mi WNW 4.6 mph - N/A   Clear
8:48 PM 69.8 °F - 32.0 °F 25% 30.14 in 10.0 mi NW 5.8 mph - N/A   Clear
9:06 PM 68.0 °F - 32.0 °F 26% 30.15 in 10.0 mi WNW 6.9 mph - N/A   Scattered Clouds
9:30 PM 68.0 °F - 32.0 °F 26% 30.16 in 10.0 mi WNW 6.9 mph - N/A   Clear
9:48 PM 68.0 °F - 32.0 °F 26% 30.16 in 10.0 mi WNW 5.8 mph - N/A   Clear
10:06 PM 68.0 °F - 32.0 °F 26% 30.16 in 10.0 mi WNW 4.6 mph - N/A   Scattered Clouds
10:30 PM 71.6 °F - 32.0 °F 23% 30.18 in 10.0 mi NW 10.4 mph 17.3 mph N/A   Clear
10:48 PM 73.4 °F - 33.8 °F 23% 30.18 in 10.0 mi NW 17.3 mph 25.3 mph N/A   Clear
11:06 PM 69.8 °F - 32.0 °F 25% 30.19 in 10.0 mi NW 17.3 mph 21.9 mph N/A   Clear
11:30 PM 69.8 °F - 32.0 °F 25% 30.19 in 10.0 mi WNW 12.7 mph 19.6 mph N/A   Clear
11:48 PM 68.0 °F - 32.0 °F 26% 30.20 in 10.0 mi NW 10.4 mph 20.7 mph N/A   Clear